| time (UTC) | temp C | wind direction | speed KPH | gust KPH | rain 1hr cm | rain 24hr cm | rain mn cm | humidity % | barometer mb |
| 20260508124804 | 12 | 259 | 4.8 | 9.7 | 0.00 | 0.00 | 0.00 | 67 | 1013.3 |
| 20260508123305 | 12 | 274 | 3.2 | 4.8 | 0.00 | 0.00 | 0.00 | 71 | 1013.3 |
| 20260508121305 | 11 | 261 | 3.2 | 4.8 | 0.00 | 0.00 | 0.00 | 74 | 1013.2 |
| 20260508120805 | 11 | 287 | 3.2 | 8.0 | 0.00 | 0.00 | 0.00 | 74 | 1013.3 |
| 20260508120304 | 10 | 294 | 1.6 | 4.8 | 0.00 | 0.00 | 0.00 | 75 | 1013.3 |
| 20260508115306 | 10 | 280 | 3.2 | 8.0 | 0.00 | 0.00 | 0.00 | 76 | 1013.2 |
| 20260508114304 | 10 | 301 | 3.2 | 8.0 | 0.00 | 0.00 | 0.00 | 76 | 1013.2 |
| 20260508113305 | 10 | 280 | 3.2 | 8.0 | 0.00 | 0.00 | 0.00 | 76 | 1013.0 |
| 20260508111305 | 10 | 350 | 4.8 | 14.5 | 0.00 | 0.00 | 0.00 | 76 | 1012.6 |
| 20260508110305 | 10 | 357 | 9.7 | 16.1 | 0.00 | 0.00 | 0.00 | 76 | 1012.5 |
| 20260508105805 | 10 | 352 | 8.0 | 16.1 | 0.00 | 0.00 | 0.00 | 76 | 1012.5 |
| 20260508105306 | 10 | 332 | 8.0 | 14.5 | 0.00 | 0.00 | 0.00 | 76 | 1012.5 |
| 20260508104805 | 10 | 331 | 6.4 | 19.3 | 0.00 | 0.00 | 0.00 | 77 | 1012.4 |
| 20260508104304 | 10 | 352 | 11.3 | 19.3 | 0.00 | 0.00 | 0.00 | 76 | 1012.4 |
| 20260508103804 | 10 | 329 | 9.7 | 16.1 | 0.00 | 0.00 | 0.00 | 77 | 1012.3 |
| 20260508102805 | 10 | 10 | 9.7 | 19.3 | 0.00 | 0.00 | 0.00 | 78 | 1012.2 |
| 20260508101305 | 10 | 338 | 14.5 | 24.1 | 0.00 | 0.00 | 0.00 | 78 | 1012.1 |
| 20260508094805 | 10 | 340 | 12.9 | 22.5 | 0.00 | 0.00 | 0.00 | 79 | 1011.8 |
| 20260508093305 | 10 | 6 | 19.3 | 29.0 | 0.00 | 0.00 | 0.00 | 78 | 1011.4 |
| 20260508091805 | 10 | 350 | 16.1 | 29.0 | 0.00 | 0.00 | 0.00 | 80 | 1011.2 |
| 20260508090805 | 10 | 8 | 16.1 | 32.2 | 0.00 | 0.00 | 0.00 | 80 | 1010.8 |
| 20260508090305 | 10 | 355 | 16.1 | 27.4 | 0.00 | 0.00 | 0.00 | 82 | 1010.7 |
| 20260508085307 | 10 | 351 | 16.1 | 27.4 | 0.00 | 0.00 | 0.00 | 84 | 1010.6 |
| 20260508084805 | 10 | 343 | 14.5 | 22.5 | 0.00 | 0.00 | 0.00 | 85 | 1010.5 |
| 20260508083305 | 10 | 343 | 16.1 | 27.4 | 0.00 | 0.00 | 0.00 | 87 | 1010.2 |
| 20260508082306 | 10 | 319 | 8.0 | 19.3 | 0.00 | 0.00 | 0.00 | 88 | 1010.0 |
| 20260508081805 | 10 | 291 | 8.0 | 19.3 | 0.00 | 0.00 | 0.00 | 88 | 1009.8 |
| 20260508075805 | 10 | 278 | 9.7 | 19.3 | 0.00 | 0.00 | 0.00 | 87 | 1009.3 |
| 20260508072307 | 10 | 270 | 9.7 | 16.1 | 0.00 | 0.03 | 0.00 | 87 | 1008.7 |
| 20260508071805 | 10 | 257 | 9.7 | 16.1 | 0.00 | 0.05 | 0.00 | 87 | 1008.7 |
| 20260508071304 | 10 | 265 | 11.3 | 19.3 | 0.00 | 0.18 | 0.00 | 86 | 1008.7 |
| 20260508070805 | 10 | 264 | 11.3 | 19.3 | 0.00 | 0.18 | 0.00 | 86 | 1008.7 |
| 20260508065805 | 10 | 262 | 16.1 | 24.1 | 0.00 | 0.20 | 0.00 | 86 | 1008.7 |
| 20260508064305 | 10 | 253 | 14.5 | 19.3 | 0.00 | 0.30 | 0.00 | 86 | 1008.6 |
| 20260508063804 | 10 | 258 | 14.5 | 22.5 | 0.00 | 0.36 | 0.00 | 87 | 1008.6 |
| 20260508063305 | 10 | 257 | 14.5 | 20.9 | 0.00 | 0.36 | 0.00 | 87 | 1008.6 |
| 20260508062805 | 10 | 255 | 11.3 | 19.3 | 0.00 | 0.36 | 0.00 | 87 | 1008.7 |
| 20260508062306 | 10 | 259 | 11.3 | 19.3 | 0.00 | 0.36 | 0.00 | 87 | 1008.7 |
| 20260508054804 | 11 | 254 | 16.1 | 20.9 | 0.00 | 0.36 | 0.00 | 86 | 1008.6 |
| 20260508053305 | 11 | 249 | 11.3 | 24.1 | 0.00 | 0.36 | 0.00 | 85 | 1008.6 |
| 20260508052805 | 11 | 259 | 14.5 | 20.9 | 0.00 | 0.36 | 0.00 | 85 | 1008.6 |
| 20260508052307 | 11 | 255 | 14.5 | 24.1 | 0.00 | 0.36 | 0.00 | 85 | 1008.7 |
| 20260508050806 | 11 | 251 | 11.3 | 22.5 | 0.00 | 0.36 | 0.00 | 86 | 1008.7 |
| 20260508050304 | 11 | 241 | 11.3 | 20.9 | 0.00 | 0.36 | 0.00 | 86 | 1008.7 |
| 20260508045805 | 11 | 248 | 14.5 | 25.7 | 0.00 | 0.36 | 0.00 | 86 | 1008.7 |
| 20260508044805 | 11 | 237 | 11.3 | 22.5 | 0.00 | 0.36 | 0.00 | 86 | 1008.7 |
| 20260508044305 | 11 | 242 | 14.5 | 22.5 | 0.00 | 0.36 | 0.00 | 86 | 1008.7 |
| 20260508043305 | 11 | 248 | 14.5 | 24.1 | 0.00 | 0.36 | 0.00 | 86 | 1008.6 |
| 20260508040305 | 12 | 237 | 12.9 | 20.9 | 0.00 | 0.36 | 0.00 | 87 | 1008.7 |
| 20260508034805 | 11 | 234 | 12.9 | 19.3 | 0.00 | 0.36 | 0.36 | 92 | 1008.8 |
| 20260508033804 | 11 | 190 | 8.0 | 14.5 | 0.00 | 0.36 | 0.36 | 92 | 1008.7 |
| 20260508033304 | 11 | 204 | 8.0 | 16.1 | 0.00 | 0.36 | 0.36 | 92 | 1008.8 |
| 20260508032306 | 11 | 195 | 8.0 | 16.1 | 0.00 | 0.36 | 0.36 | 92 | 1009.0 |
| 20260508030805 | 10 | 187 | 9.7 | 16.1 | 0.00 | 0.36 | 0.36 | 91 | 1008.8 |
| 20260508025306 | 10 | 178 | 4.8 | 8.0 | 0.00 | 0.36 | 0.36 | 90 | 1008.9 |
| 20260508023805 | 11 | 190 | 4.8 | 12.9 | 0.00 | 0.36 | 0.36 | 90 | 1008.9 |
| 20260508021805 | 10 | 194 | 8.0 | 16.1 | 0.00 | 0.36 | 0.36 | 90 | 1009.1 |
| 20260508021305 | 10 | 194 | 9.7 | 19.3 | 0.00 | 0.36 | 0.36 | 89 | 1009.0 |
| 20260508015804 | 10 | 196 | 8.0 | 19.3 | 0.00 | 0.36 | 0.36 | 89 | 1008.9 |
| 20260508015306 | 10 | 190 | 6.4 | 11.3 | 0.00 | 0.36 | 0.36 | 89 | 1008.8 |
| 20260508012804 | 11 | 186 | 9.7 | 19.3 | 0.00 | 0.36 | 0.36 | 88 | 1008.6 |
| 20260508011804 | 10 | 191 | 9.7 | 19.3 | 0.00 | 0.36 | 0.36 | 88 | 1008.6 |
| 20260508010804 | 10 | 196 | 9.7 | 19.3 | 0.00 | 0.36 | 0.36 | 88 | 1008.4 |
| 20260508004304 | 11 | 190 | 12.9 | 20.9 | 0.00 | 0.36 | 0.36 | 88 | 1008.5 |
| 20260508002306 | 11 | 201 | 9.7 | 16.1 | 0.00 | 0.36 | 0.36 | 81 | 1008.1 |
| 20260508000804 | 11 | 188 | 8.0 | 19.3 | 0.00 | 0.36 | 0.36 | 76 | 1008.2 |
| 20260508000305 | 11 | 200 | 11.3 | 19.3 | 0.00 | 0.36 | 0.36 | 74 | 1008.2 |
| 20260507235804 | 11 | 195 | 9.7 | 14.5 | 0.00 | 0.36 | 0.36 | 76 | 1008.4 |
| 20260507235307 | 11 | 200 | 9.7 | 16.1 | 0.00 | 0.36 | 0.36 | 77 | 1008.4 |
| 20260507234804 | 11 | 197 | 9.7 | 16.1 | 0.00 | 0.36 | 0.36 | 79 | 1008.4 |
| 20260507233804 | 11 | 188 | 9.7 | 19.3 | 0.00 | 0.36 | 0.36 | 80 | 1008.2 |
| 20260507233304 | 11 | 185 | 9.7 | 16.1 | 0.00 | 0.36 | 0.36 | 81 | 1008.0 |
| 20260507232804 | 11 | 195 | 8.0 | 14.5 | 0.00 | 0.36 | 0.36 | 81 | 1007.8 |
| 20260507232306 | 11 | 190 | 9.7 | 14.5 | 0.00 | 0.36 | 0.36 | 81 | 1007.9 |
| 20260507231804 | 11 | 190 | 8.0 | 14.5 | 0.00 | 0.36 | 0.36 | 80 | 1007.9 |
| 20260507225306 | 12 | 194 | 8.0 | 20.9 | 0.00 | 0.36 | 0.36 | 80 | 1007.7 |
| 20260507224804 | 12 | 200 | 11.3 | 19.3 | 0.00 | 0.36 | 0.36 | 81 | 1007.7 |
| 20260507223804 | 12 | 180 | 8.0 | 16.1 | 0.00 | 0.36 | 0.36 | 81 | 1007.9 |
| 20260507222804 | 12 | 187 | 14.5 | 20.9 | 0.00 | 0.36 | 0.36 | 81 | 1007.8 |
| 20260507221804 | 12 | 197 | 11.3 | 24.1 | 0.00 | 0.36 | 0.36 | 80 | 1008.4 |
| 20260507221304 | 12 | 188 | 12.9 | 20.9 | 0.00 | 0.36 | 0.36 | 80 | 1008.2 |
| 20260507220304 | 12 | 182 | 8.0 | 19.3 | 0.00 | 0.36 | 0.36 | 81 | 1008.1 |
| 20260507215804 | 12 | 185 | 8.0 | 16.1 | 0.00 | 0.36 | 0.36 | 82 | 1008.0 |
| 20260507215307 | 12 | 177 | 9.7 | 11.3 | 0.00 | 0.36 | 0.36 | 83 | 1007.9 |
| 20260507214807 | 12 | 181 | 8.0 | 14.5 | 0.00 | 0.36 | 0.36 | 83 | 1007.8 |
| 20260507213307 | 12 | 188 | 9.7 | 16.1 | 0.00 | 0.36 | 0.36 | 83 | 1008.1 |
| 20260507211307 | 12 | 189 | 9.7 | 19.3 | 0.00 | 0.36 | 0.36 | 83 | 1007.8 |
| 20260507210307 | 13 | 180 | 8.0 | 12.9 | 0.00 | 0.36 | 0.36 | 82 | 1007.5 |
| 20260507204807 | 12 | 179 | 8.0 | 19.3 | 0.00 | 0.36 | 0.36 | 83 | 1007.5 |
| 20260507204307 | 12 | 183 | 8.0 | 19.3 | 0.00 | 0.36 | 0.36 | 83 | 1007.7 |
| 20260507203807 | 12 | 180 | 8.0 | 16.1 | 0.00 | 0.36 | 0.36 | 83 | 1007.6 |
| 20260507202807 | 12 | 161 | 8.0 | 16.1 | 0.00 | 0.36 | 0.36 | 84 | 1007.5 |
| 20260507201807 | 12 | 151 | 9.7 | 16.1 | 0.00 | 0.36 | 0.36 | 84 | 1007.3 |
| 20260507201307 | 12 | 147 | 9.7 | 16.1 | 0.00 | 0.36 | 0.36 | 83 | 1007.4 |
| 20260507200807 | 12 | 156 | 9.7 | 14.5 | 0.00 | 0.36 | 0.36 | 84 | 1007.6 |
| 20260507200307 | 12 | 153 | 8.0 | 14.5 | 0.00 | 0.36 | 0.36 | 84 | 1007.4 |
| 20260507195307 | 11 | 151 | 9.7 | 14.5 | 0.00 | 0.36 | 0.36 | 83 | 1007.4 |
| 20260507194307 | 12 | 155 | 8.0 | 12.9 | 0.00 | 0.36 | 0.36 | 82 | 1007.7 |
| 20260507193807 | 12 | 161 | 8.0 | 14.5 | 0.00 | 0.36 | 0.36 | 81 | 1007.7 |
| 20260507192807 | 12 | 157 | 8.0 | 14.5 | 0.00 | 0.36 | 0.36 | 80 | 1008.2 |
| 20260507192307 | 12 | 179 | 6.4 | 14.5 | 0.00 | 0.36 | 0.36 | 80 | 1008.3 |
| 20260507190807 | 12 | 159 | 9.7 | 14.5 | 0.00 | 0.36 | 0.36 | 78 | 1008.1 |
| 20260507190307 | 13 | 156 | 9.7 | 14.5 | 0.00 | 0.36 | 0.36 | 76 | 1008.0 |
| 20260507185307 | 15 | 127 | 1.6 | 8.0 | 0.00 | 0.36 | 0.36 | 76 | 1007.8 |
| 20260507184807 | 14 | 156 | 3.2 | 8.0 | 0.00 | 0.36 | 0.36 | 78 | 1007.9 |
| 20260507183306 | 13 | 149 | 4.8 | 9.7 | 0.00 | 0.36 | 0.36 | 77 | 1008.7 |
| 20260507182807 | 13 | 142 | 9.7 | 12.9 | 0.00 | 0.36 | 0.36 | 75 | 1008.6 |
| 20260507182307 | 15 | 148 | 8.0 | 9.7 | 0.00 | 0.36 | 0.36 | 71 | 1008.6 |
| 20260507181807 | 15 | 148 | 3.2 | 4.8 | 0.00 | 0.36 | 0.36 | 70 | 1008.5 |
| 20260507180807 | 16 | 117 | 1.6 | 4.8 | 0.00 | 0.36 | 0.36 | 67 | 1008.7 |
| 20260507175807 | 16 | 108 | 1.6 | 8.0 | 0.00 | 0.36 | 0.36 | 67 | 1008.6 |
| 20260507174806 | 16 | 160 | 3.2 | 4.8 | 0.00 | 0.36 | 0.36 | 67 | 1008.5 |
| 20260507174307 | 16 | 127 | 3.2 | 4.8 | 0.00 | 0.36 | 0.36 | 65 | 1008.4 |
| 20260507173807 | 16 | 102 | 3.2 | 4.8 | 0.00 | 0.36 | 0.36 | 65 | 1008.5 |
| 20260507170309 | 15 | 141 | 1.6 | 3.2 | 0.00 | 0.36 | 0.36 | 72 | 1009.2 |
| 20260507165807 | 15 | 133 | 3.2 | 4.8 | 0.00 | 0.36 | 0.36 | 72 | 1009.4 |
| 20260507164807 | 15 | 113 | 3.2 | 4.8 | 0.00 | 0.36 | 0.36 | 72 | 1009.5 |
| 20260507161806 | 13 | 20 | 4.8 | 11.3 | 0.00 | 0.36 | 0.36 | 65 | 1009.8 |
| 20260507160806 | 13 | 1 | 4.8 | 11.3 | 0.00 | 0.36 | 0.36 | 67 | 1010.0 |
| 20260507160307 | 13 | 334 | 4.8 | 9.7 | 0.00 | 0.36 | 0.36 | 68 | 1010.0 |
| 20260507155806 | 13 | 336 | 4.8 | 9.7 | 0.00 | 0.36 | 0.36 | 69 | 1010.0 |
| 20260507154307 | 13 | 358 | 6.4 | 11.3 | 0.00 | 0.36 | 0.36 | 71 | 1010.2 |
| 20260507153807 | 12 | 346 | 11.3 | 19.3 | 0.00 | 0.36 | 0.36 | 71 | 1010.1 |
| 20260507152307 | 12 | 354 | 9.7 | 16.1 | 0.00 | 0.36 | 0.36 | 74 | 1010.2 |
| 20260507151807 | 12 | 356 | 8.0 | 14.5 | 0.00 | 0.36 | 0.36 | 76 | 1010.5 |
| 20260507151306 | 12 | 334 | 8.0 | 12.9 | 0.00 | 0.36 | 0.36 | 76 | 1010.6 |
| 20260507150807 | 12 | 330 | 8.0 | 12.9 | 0.00 | 0.36 | 0.36 | 77 | 1010.5 |
| 20260507150306 | 12 | 307 | 4.8 | 11.3 | 0.00 | 0.36 | 0.36 | 77 | 1010.7 |
| 20260507145307 | 12 | 329 | 4.8 | 14.5 | 0.00 | 0.36 | 0.36 | 78 | 1010.6 |
| 20260507142807 | 12 | 3 | 11.3 | 20.9 | 0.00 | 0.36 | 0.36 | 81 | 1010.7 |
| 20260507142307 | 12 | 329 | 8.0 | 16.1 | 0.00 | 0.36 | 0.36 | 81 | 1010.6 |
| 20260507140806 | 11 | 338 | 9.7 | 19.3 | 0.00 | 0.36 | 0.36 | 82 | 1010.5 |
| 20260507140306 | 11 | 0 | 11.3 | 19.3 | 0.00 | 0.36 | 0.36 | 82 | 1010.6 |
| 20260507134806 | 11 | 344 | 6.4 | 16.1 | 0.00 | 0.36 | 0.36 | 83 | 1010.5 |
| 20260507134307 | 11 | 339 | 8.0 | 19.3 | 0.00 | 0.36 | 0.36 | 84 | 1010.6 |
| 20260507133307 | 11 | 336 | 8.0 | 16.1 | 0.00 | 0.36 | 0.36 | 84 | 1010.6 |
| 20260507132807 | 11 | 351 | 9.7 | 19.3 | 0.00 | 0.36 | 0.36 | 84 | 1010.6 |
| 20260507132307 | 11 | 322 | 8.0 | 19.3 | 0.00 | 0.36 | 0.36 | 84 | 1010.6 |
| 20260507131306 | 11 | 355 | 12.9 | 22.5 | 0.00 | 0.36 | 0.36 | 84 | 1010.4 |